Regional Weather Roundup
Issued by NWS Huntsville, AL

Home | Current Version | Previous Version | Text Only | Print | Product List | Glossary On
Versions: 1 2 3 4 5 6 7 8 9 10 11 12 13 14 15 16 17 18 19 20 21 22 23 24 25 26 27
000
ASUS44 KHUN 281510
RWRHUN

WEATHER ROUNDUP FOR THE TENNESSEE VALLEY
NATIONAL WEATHER SERVICE HUNTSVILLE AL
1000 AM CDT WED SEP 28 2016

ALZ001>004-281600-
NORTHWEST ALABAMA

CITY           SKY/WX    TMP DP  RH WIND       PRES   REMARKS
COURTLAND HCN    N/A     70 N/A N/A CALM        N/A
RUSSELLVILLE     N/A     72 N/A N/A MISG        N/A
SHOALS AIRPORT SUNNY     73  45  36 SW5       30.00R
SHOALS TVA RES   N/A     70 N/A N/A MISG        N/A
$$

ALZ005>007-016-281600-
NORTH CENTRAL ALABAMA

CITY           SKY/WX    TMP DP  RH WIND       PRES   REMARKS
CULLMAN AG STN   N/A     72 N/A N/A CALM        N/A
DECATUR AP     SUNNY     72  51  47 S6        30.00R
HUNTSVILLE AP  SUNNY     71  51  49 S3        29.99R
MERIDIANVILLE  SUNNY     68  43  40 CALM      29.99S
REDSTONE ARSN  SUNNY     70  49  47 VRB3      29.98S
VINEMONT AP    FAIR      74  42  31 NW3       30.01R
$$

ALZ008>010-281600-
NORTHEAST ALABAMA

CITY           SKY/WX    TMP DP  RH WIND       PRES   REMARKS
ALBERTVILLE    SUNNY     70  52  52 W3        29.99S
FORT PAYNE     SUNNY     68  48  49 CALM      29.98S
SCOTTSBORO AP  SUNNY     68  50  52 CALM      30.00S
SCOTTSBORO HCN   N/A     66 N/A N/A MISG        N/A
VALLEY HEAD      N/A     66 N/A N/A MISG        N/A
$$

TNZ076-096-097-281600-
SOUTHEASTERN MIDDLE TENNESSEE

CITY           SKY/WX    TMP DP  RH WIND       PRES   REMARKS
TULLAHOMA      SUNNY     70  48  46 S7        29.99S
WINCHESTER     SUNNY     70  50  49 CALM      29.99S
$$

...SURROUNDING SITES...

CITY           SKY/WX    TMP DP  RH WIND       PRES   REMARKS
ATLANTA        SUNNY     75  58  55 NW8       29.98R
ANNISTON       SUNNY     77  50  38 VRB5      29.98S
BIRMINGHAM     MOSUNNY   78  40  25 NW3       30.01S
CHATTANOOGA    SUNNY     69  52  54 MISG      29.98S
CORINTH        FAIR      72  48  43 VRB5      29.97R
DALTON         SUNNY     72  50  46 CALM      29.98S
GADSDEN        SUNNY     73  49  42 CALM      29.99S
GOLDEN TRNGL   SUNNY     75  64  69 W7        30.01R
HALEYVILLE     FAIR      72  47  40 VRB5      30.02R
JACKSON TN     SUNNY    N/A N/A N/A SW9       29.93F
MEMPHIS        SUNNY     74  54  49 SW7       29.96R
NASHVILLE      MOSUNNY   71  45  39 S10       29.94S
OXFORD MS      FAIR      72  50  46 W7        30.01R
ROME           SUNNY     74  48  39 CALM      29.97R
SAVANNAH       SUNNY     73  48  40 SW6       29.96R
TUPELO         SUNNY     73  45  36 SW3       29.99R
TUSCALOOSA     SUNNY     75  52  44 CALM      30.00R
$$

...GULF COAST WEATHER...

CITY           SKY/WX    TMP DP  RH WIND       PRES   REMARKS
GULFPORT       SUNNY     82  59  45 VRB3      30.00R
PASCAGOULA     SUNNY     81  64  56 N3        30.00R
MOBILE         MOSUNNY   81  60  48 N6        30.01R
GULF SHORES    MOSUNNY   80  74  84 CALM      29.99R
PENSACOLA      MOSUNNY   82  74  76 CALM      29.99R
DESTIN         MOSUNNY   86  74  67 VRB3      29.98R HX  94
PANAMA CITY    MOSUNNY   82  74  78 CALM      29.98S
APPALACHICOLA  LGT RAIN  79  78  97 W8        29.98S FOG
$$





USA.gov is the U.S. government's official web portal to all federal, state and local government web resources and services.